[[{"header":{"parameterUnit":"m.s-1","parameterCategory":1,"la1":30.2991,"la2":30.254,"lo1":-89.0895,"lo2":-89.0444,"dy":0.0017,"dx":0.0017,"nx":28,"ny":28,"refTime":"2025-05-16T03:00:00:Z","depth":0,"parameterNumber":2,"parameterNumberName":"U-component_of_WINDS"},"data":[0,0,0,0,0,0,0,0,0,0,0,0,0,0,0,0,0,0,0,0,0,0,0,0,0,0,0,0,0,0,0,0,0,0,0,0,0,0,0,0,0,0,0,0,0,0,0,0,0,0,0,0,0,0,0,0,0,0,2.3191,2.3192,0,2.331,2.3311,2.3313,2.3289,2.3287,2.3285,2.3283,2.3407,2.3413,2.3418,0,0,0,0,0,0,0,0,0,0,0,0,0,2.2944,2.2949,2.3191,2.3192,2.3194,2.331,2.3311,2.3313,2.329,2.3287,2.3285,2.3282,2.3406,2.3412,2.3418,0,0,0,0,0,0,0,0,0,0,0,0,0,2.3056,2.295,2.319,2.3196,2.3198,2.3309,2.3311,2.3313,2.329,2.3287,2.3284,2.3281,2.3404,2.3411,2.3419,2.3533,0,0,2.3444,2.3447,0,0,0,0,0,0,0,0,2.305,2.3065,2.3194,2.3196,2.3198,2.3281,2.327,2.3387,2.3291,2.3255,2.3283,2.3279,2.3368,2.3379,2.3408,2.3539,2.3545,2.3444,2.3449,2.3453,2.3455,0,0,0,0,0,0,0,2.3042,2.306,2.3238,2.3196,2.3198,2.3193,2.3205,2.3292,2.3329,2.3258,2.3257,2.3271,2.3369,2.3401,2.3411,2.3546,2.3444,2.3451,2.3456,2.3459,2.3775,2.3779,0,0,0,0,0,0,2.3032,2.3054,2.3234,2.3241,2.3114,2.32,2.3214,2.3258,2.3328,2.3335,2.3274,2.3269,2.3389,2.3402,2.3415,2.3553,2.3452,2.346,2.3465,2.3772,2.3776,2.378,0,0,0,0,0,0,2.3027,2.3048,2.3229,2.3147,2.317,2.3208,2.3257,2.3262,2.3294,2.3339,2.3346,2.33,2.3387,2.3404,2.3504,2.3557,2.3464,2.3471,2.3768,2.3773,2.3778,2.3829,0,0,0,0,0,0,2.302,2.3047,2.309,2.3148,2.3174,2.3315,2.3261,2.3267,2.3308,2.3303,2.3365,2.3373,2.3386,2.3492,2.3512,2.3566,2.3477,2.3763,2.377,2.3776,2.3823,2.3835,2.3846,0,0,0,0,0,2.3011,2.3101,2.3093,2.3115,2.3229,2.3318,2.3333,2.3346,2.3312,2.3356,2.3385,2.3371,2.3548,2.3502,2.3524,2.3582,2.376,2.3768,2.3776,2.3817,2.3833,2.3846,0,0,0,0,0,0,2.3049,2.3108,2.31,2.3211,2.326,2.3314,2.3371,2.3362,2.3422,2.3416,2.3429,2.3444,2.3544,2.3573,2.3522,2.3696,2.3649,2.3662,2.3673,2.3688,2.37,2.3691,2.3484,0,0,0,0,0,2.307,2.3137,2.3185,2.3278,2.3303,2.3333,2.3372,2.3377,2.3429,2.3449,2.3486,2.3536,2.3603,2.3647,2.3712,2.3827,2.384,2.3877,2.3889,2.3898,2.3909,2.3971,2.3988,2.3807,2.3807,2.3807,0,0,2.3115,2.3155,2.3197,2.3287,2.3325,2.3394,2.335,2.3426,2.3477,2.3461,2.3557,2.3585,2.3643,2.375,2.3799,2.3777,2.3962,2.3909,2.3916,2.3922,2.3981,2.3999,2.4014,2.3812,2.3811,2.381,0,0,2.3231,2.3269,2.335,2.3389,2.3447,2.3466,2.3485,2.3541,2.3559,2.3655,2.3644,2.3705,2.3821,2.3862,2.3898,2.4028,2.4017,2.4049,2.4111,2.4171,2.4185,2.4198,2.4244,2.426,2.406,2.406,2.406,0,2.3279,2.3382,2.3393,2.3469,2.3508,2.3496,2.3578,2.3616,2.3692,2.372,2.3694,2.3838,2.3876,2.3992,2.4024,2.4054,2.4076,2.4042,2.4182,2.4195,2.4207,2.4251,2.4268,2.4064,2.4063,2.4063,2.4062,0,2.3438,2.351,2.3568,2.3641,2.3688,2.3766,2.3789,2.3835,2.3836,2.3857,2.3955,2.4,2.4072,2.41,2.4103,2.4217,2.4201,2.4179,2.4132,2.4228,2.4269,2.4286,2.4068,2.4067,2.4066,2.4065,0,0,2.3582,2.3659,2.368,2.3712,2.3775,2.3831,2.3909,2.3979,2.4018,2.4071,2.4136,2.4233,2.4213,2.4254,2.426,2.4313,2.4412,2.4284,2.4286,2.4306,2.454,2.4556,2.4576,2.4405,2.4409,2.4411,2.4535,0,2.3703,2.384,2.3851,2.3974,2.404,2.4029,2.4097,2.4143,2.4165,2.4224,2.4249,2.4317,2.4285,2.4309,2.4361,2.4389,2.446,2.4381,2.4466,2.4469,2.4452,2.4597,2.4615,2.473,2.4551,2.4554,2.4556,0,2.3863,2.392,2.4049,2.4102,2.413,2.419,2.4255,2.4312,2.4363,2.4376,2.4421,2.442,2.45,2.445,2.4561,2.4507,2.4542,2.4561,2.4566,2.4575,2.4518,2.4609,2.4767,2.4784,2.4582,2.458,2.4578,0,2.3954,2.4063,2.4154,2.4182,2.4246,2.4289,2.4317,2.4366,2.4407,2.4463,2.449,2.4555,2.4591,2.4642,2.4659,2.4621,2.4768,2.472,2.4781,2.478,2.4812,2.481,2.4977,2.4836,2.4836,2.4835,2.4835,0,2.4089,2.4168,2.4196,2.4252,2.434,2.4352,2.444,2.4466,2.4509,2.457,2.4565,2.4622,2.4641,2.4702,2.4715,2.4804,2.4821,2.4833,2.4835,2.4833,2.4831,2.4856,2.4849,2.484,2.4839,2.4838,2.4837,0,2.4205,2.4227,2.4325,2.4377,2.4392,2.4455,2.4499,2.4553,2.4573,2.4651,2.467,2.4702,2.4773,2.4795,2.4881,2.489,2.4994,2.499,2.4976,2.4976,2.5035,2.5029,2.5224,2.525,2.5092,2.5094,2.5095,0,2.4289,2.435,2.4408,2.4447,2.4477,2.4542,2.4584,2.4598,2.4641,2.4704,2.475,2.482,2.4877,2.4991,2.5022,2.5088,2.5085,2.5149,2.5095,2.509,2.5085,2.5081,2.5087,2.5159,2.5161,2.5162,2.5163,0,2.4436,2.4443,2.4502,2.4566,2.4615,2.4666,2.4714,2.4748,2.4769,2.4818,2.489,2.4934,2.502,2.509,2.5156,2.5186,2.5178,2.518,2.5197,2.5195,2.5184,2.519,2.5003,2.5175,2.5174,2.5173,2.5172,2.5172,2.4538,2.4591,2.4639,2.4706,2.4743,2.4789,2.4842,2.4868,2.4928,2.5,2.5004,2.5082,2.5132,2.5219,2.5253,2.5314,2.5295,2.5321,2.5327,2.5333,2.5337,2.5175,2.5326,2.5326,2.5325,2.5325,2.5325,0,2.4683,2.4714,2.4774,2.4842,2.4894,2.4881,2.4934,2.4979,2.5047,2.5093,2.5149,2.5231,2.5298,2.5334,2.5401,2.5443,2.5441,2.546,2.5457,2.5464,2.535,2.5328,2.5461,2.546,2.546,2.546,2.546,2.546,2.4765,2.4853,2.4866,2.4974,2.5003,2.5079,2.511,2.5152,2.5189,2.528,2.5336,2.5359,2.5401,2.5471,2.5531,2.554,2.5565,2.5586,2.5593,2.5486,2.5472,2.5459,2.5438,2.5591,2.5592,2.5701,2.5702,2.5703]},{"header":{"parameterUnit":"m.s-1","parameterCategory":1,"la1":30.2991,"la2":30.254,"lo1":-89.0895,"lo2":-89.0444,"dy":0.0017,"dx":0.0017,"nx":28,"ny":28,"refTime":"2025-05-16T03:00:00:Z","depth":0,"parameterNumber":3,"parameterNumberName":"V-component_of_WINDS"},"data":[0,0,0,0,0,0,0,0,0,0,0,0,0,0,0,0,0,0,0,0,0,0,0,0,0,0,0,0,0,0,0,0,0,0,0,0,0,0,0,0,0,0,0,0,0,0,0,0,0,0,0,0,0,0,0,0,0,0,4.4562,4.4563,0,4.4701,4.4703,4.4704,4.4686,4.4684,4.4681,4.4679,4.4816,4.4821,4.4827,0,0,0,0,0,0,0,0,0,0,0,0,0,4.4273,4.4278,4.4562,4.4564,4.4565,4.4701,4.4703,4.4705,4.4686,4.4684,4.4681,4.4678,4.4814,4.4821,4.4827,0,0,0,0,0,0,0,0,0,0,0,0,0,4.4404,4.428,4.4561,4.4573,4.4575,4.4701,4.4703,4.4705,4.4687,4.4684,4.468,4.4677,4.4811,4.482,4.4828,4.495,0,0,4.4855,4.4858,0,0,0,0,0,0,0,0,4.4396,4.4414,4.4569,4.4572,4.4575,4.4673,4.4651,4.4787,4.4688,4.4644,4.4679,4.4675,4.477,4.4782,4.4816,4.4956,4.4962,4.4856,4.4861,4.4864,4.4867,0,0,0,0,0,0,0,4.4387,4.4408,4.4617,4.4571,4.4575,4.4568,4.4583,4.4677,4.4725,4.4648,4.4647,4.4664,4.4771,4.4807,4.4819,4.4964,4.4855,4.4863,4.4868,4.4872,4.521,4.5214,0,0,0,0,0,0,4.4376,4.4401,4.4612,4.4621,4.4476,4.4576,4.4593,4.4645,4.4724,4.4732,4.4667,4.4662,4.4794,4.4809,4.4823,4.4971,4.4864,4.4872,4.4877,4.5207,4.5211,4.5215,0,0,0,0,0,0,4.437,4.4395,4.4607,4.4511,4.4537,4.4585,4.4643,4.4649,4.4686,4.4738,4.4746,4.4695,4.4792,4.4811,4.4919,4.4975,4.4876,4.4884,4.5202,4.5208,4.5213,4.5267,0,0,0,0,0,0,4.4362,4.4393,4.4442,4.4512,4.4542,4.4702,4.4647,4.4655,4.4701,4.4697,4.4767,4.4775,4.4791,4.4906,4.4927,4.4986,4.4891,4.5197,4.5205,4.5211,4.526,4.5274,4.5285,0,0,0,0,0,4.4352,4.445,4.4444,4.447,4.4604,4.4706,4.4723,4.4741,4.4706,4.4754,4.4787,4.4773,4.4966,4.4917,4.4941,4.5003,4.5194,4.5203,4.5211,4.5255,4.5271,4.5285,0,0,0,0,0,0,4.4383,4.446,4.4454,4.4578,4.4636,4.4702,4.4764,4.4758,4.4825,4.4818,4.4835,4.4851,4.496,4.4992,4.4937,4.5124,4.5074,4.5088,4.51,4.5116,4.5128,4.5118,4.4898,0,0,0,0,0,4.4405,4.4483,4.4544,4.4648,4.4677,4.4716,4.476,4.477,4.4829,4.4852,4.4894,4.495,4.5023,4.5071,4.5141,4.5264,4.5279,4.5318,4.533,4.534,4.5352,4.5419,4.5437,4.5244,4.5243,4.5243,0,0,4.445,4.4501,4.4549,4.4656,4.4701,4.478,4.4736,4.4821,4.4879,4.4864,4.497,4.5001,4.5065,4.5181,4.5234,4.5211,4.5409,4.5351,4.5359,4.5366,4.543,4.5448,4.5464,4.5249,4.5248,4.5247,0,0,4.4572,4.462,4.4711,4.4758,4.4828,4.4853,4.4875,4.4942,4.4964,4.507,4.5061,4.5128,4.5254,4.53,4.5339,4.5478,4.5467,4.55,4.5566,4.563,4.5646,4.5659,4.5709,4.5726,4.5511,4.5512,4.5512,0,4.4619,4.4739,4.4758,4.4845,4.4891,4.4884,4.4976,4.5019,4.5108,4.5139,4.5112,4.527,4.5312,4.5438,4.5472,4.5505,4.5529,4.5493,4.5642,4.5656,4.5669,4.5716,4.5735,4.5515,4.5515,4.5514,4.5514,0,4.4793,4.4876,4.4941,4.503,4.5083,4.5172,4.5202,4.5254,4.5257,4.5284,4.5391,4.5442,4.5522,4.5552,4.5556,4.5679,4.5662,4.5639,4.5589,4.5691,4.5736,4.5754,4.552,4.5519,4.5518,4.5517,0,0,4.494,4.5038,4.5062,4.5101,4.5178,4.5241,4.5328,4.5409,4.5452,4.5513,4.5586,4.5692,4.5671,4.5716,4.5724,4.5781,4.5888,4.5751,4.5752,4.5774,4.6025,4.6043,4.6064,4.588,4.5884,4.5887,4.602,0,4.5071,4.5228,4.5247,4.5385,4.5462,4.5455,4.5531,4.5584,4.5611,4.5678,4.5706,4.5782,4.5748,4.5775,4.5831,4.5863,4.5938,4.5853,4.5947,4.595,4.5932,4.6087,4.6107,4.623,4.6038,4.6041,4.6043,0,4.5244,4.5312,4.5459,4.5525,4.5557,4.5625,4.57,4.5765,4.5825,4.584,4.589,4.5892,4.5979,4.5926,4.6046,4.5988,4.6027,4.6048,4.6053,4.6063,4.6003,4.6102,4.627,4.6289,4.607,4.6068,4.6066,0,4.5337,4.5465,4.5569,4.5603,4.5683,4.573,4.5765,4.5822,4.5869,4.5933,4.5963,4.6036,4.6076,4.6131,4.6151,4.6111,4.627,4.6219,4.6284,4.6284,4.6319,4.6317,4.6497,4.6343,4.6343,4.6342,4.6342,0,4.5481,4.5571,4.5612,4.5677,4.5777,4.5796,4.5894,4.5926,4.5977,4.6046,4.6043,4.6107,4.6129,4.6196,4.6212,4.6309,4.6326,4.634,4.6343,4.6341,4.6339,4.6367,4.6359,4.6347,4.6346,4.6345,4.6344,0,4.5602,4.5634,4.5747,4.5813,4.5832,4.5902,4.5958,4.6018,4.6044,4.6131,4.6152,4.6192,4.6271,4.6296,4.639,4.6401,4.6514,4.6509,4.6495,4.6495,4.656,4.6553,4.6764,4.6793,4.662,4.6621,4.6623,0,4.5692,4.5762,4.5836,4.5883,4.592,4.5995,4.6044,4.6065,4.6115,4.6188,4.624,4.6318,4.6383,4.6508,4.6544,4.6616,4.6613,4.6682,4.6623,4.6619,4.6614,4.661,4.6617,4.6693,4.6695,4.6696,4.6697,0,4.5849,4.5861,4.5932,4.6009,4.6067,4.6128,4.6186,4.6224,4.6253,4.6309,4.6391,4.6441,4.6538,4.6616,4.6689,4.6721,4.6714,4.6715,4.6734,4.6733,4.6722,4.6729,4.6525,4.671,4.6709,4.6708,4.6707,4.6707,4.5958,4.6019,4.6081,4.616,4.6207,4.6261,4.6322,4.6356,4.6425,4.6508,4.6515,4.6603,4.6659,4.6757,4.6794,4.6861,4.6841,4.6869,4.6876,4.6882,4.6888,4.6711,4.6874,4.6874,4.6873,4.6873,4.6873,0,4.6115,4.6154,4.6227,4.631,4.6371,4.6361,4.6424,4.6476,4.6554,4.6609,4.6672,4.6765,4.684,4.6882,4.6956,4.7002,4.7001,4.7021,4.7018,4.7026,4.6901,4.6878,4.7021,4.7021,4.7021,4.7021,4.7021,4.7021,4.6204,4.6307,4.6327,4.6452,4.649,4.6578,4.6616,4.6665,4.6709,4.6814,4.6877,4.6904,4.6953,4.7031,4.7098,4.7108,4.7136,4.7159,4.7166,4.705,4.7034,4.702,4.6998,4.7164,4.7165,4.7286,4.7287,4.7287]}]]